NOAA 16 DEB

Satellite information

Favourite Embed

Satellite Type and Status

DEBRISIN ORBIT

Key statistics

Satellite NOAA 16 DEB at a glance.

Uptime

9109

Days in orbit

Revolutions

≈ 14.2

Per day

Orbit

SSO

Sun Synchronous Orbit

Inclination

98.8

Latest

Satellite identification and parameters

Extended collection of information and parameters for NOAA 16 DEB.

Object identification

Identified? True

Debris? True

Object name: NOAA 16 DEB

International designator: 2000-055HZ

Object number (NORAD): 41356

Object ID (CCSDS): 41356

Country: UNITED STATES OF AMERICA (US)

Current information (Y/N): Y

RCS size: SMALL

Orbital parameters

Period: 101.348 minutes

Inclination: 98.7613 deg

SMA: 7200.616 km

Apoapsis: 849.913 km

Periapsis: 795.049 km

RAAN: 292.2386 deg

Eccentricy: 0.00380969

Argument of periapsis: 262.9879 deg

Mean anomaly: 96.6964 deg

Mean motion: 14.2085022 rev/day

Mean motion (dot): 0.00003477 rev/day2

B* drag term: 0.0016165476 1/REarth

Two-line elements (TLE)

Creation date: Aug. 27, 2025, 8:01 p.m.

Reference frame: TEME

Reference center: EARTH

Epoch: Aug. 27, 2025, 10:06 a.m. UTC

TLE line 0: 0 NOAA 16 DEB

TLE line 1: 1 41356U 00055HZ 25239.42096509 .00003477 00000-0 16165-2 0 9997

TLE line 2: 2 41356 98.7613 292.2386 0038097 262.9879 96.6964 14.20850220495616

Live tracking on map

Real-time ground track for satellite NOAA 16 DEB.

In-orbit conjunctions

A list of the most updated potential collisions computed for object NOAA 16 DEB.

Target Orbit TCA Probability of collision Miss distance Type
COSMOS 1275 DEB LEO 2025-05-03 09:53:26 0.0002320304 75.0 (m) DEBRIS
SCOUT X-4 R/B SSO 2024-10-19 09:07:17 0.0005332471 162.0 (m) ROCKET BODY
METEOR 1-19 LEO 2024-06-05 10:51:55 0.0002097785 481.0 (m) PAYLOAD

Associated space launch

The NOAA K, L and M POES satellites begin the fifth generation of improved environmental monitoring in support of NOAA missions. The instrument payload has significant improvements and additions/deletions. The instrument changes have effected the spacecraft subsystems and data formats.

NOAA 16 DEB was lifted into orbit during the mission ‘Titan II SLV | NOAA 16’, on board a Titan II SLV space rocket.

The launch took place on Sept. 21, 2000, 10:22 a.m. from Space Launch Complex 4W.

For more information about the launch, click the button.

Launch to space Titan II SLV | NOAA 16
Titan II SLV | NOAA 16

Agency: N/A

Status: Launch Successful

Launch date: Sept. 21, 2000, 10:22 a.m. UTC

Rocket: Titan II SLV

Launch pad: Space Launch Complex 4W

Location: Vandenberg SFB, CA, USA

...

Latest news about this satellite

There are no fresh news available about this satellite. Check back as we update our databases every day.


Newsletter sign-up

Weekly statistics, charts and insights to help you stay on top of the space industry.